This is the latest recevied weather packets stored in our database for station/object OE-11349. If no packets are shown the sender has not sent any weather packets the latest 10 day(s).
| Time | Temp. | Humidity | Pressure | Rain* | Wind** | Luminosity | Snow |
|---|---|---|---|---|---|---|---|
| 1787978482 | 9.44° C | 78% | 853.4 hPa | - | - | 0 W/m² | - |
| 1787978108 | 9.44° C | 80% | 853.5 hPa | - | - | 0 W/m² | - |
| 1787977508 | 8.89° C | 83% | 853.6 hPa | - | - | 0 W/m² | - |
| 1787976682 | 9.44° C | 80% | 853.7 hPa | - | - | 0 W/m² | - |
| 1787976309 | 9.44° C | 81% | 853.8 hPa | - | - | 0 W/m² | - |
| 1787975709 | 8.89° C | 83% | 853.8 hPa | - | - | 0 W/m² | - |
| 1787975109 | 9.44° C | 82% | 853.7 hPa | - | - | 0 W/m² | - |
| 1787974508 | 8.89° C | 84% | 853.7 hPa | - | - | 0 W/m² | - |
| 1787973909 | 9.44° C | 84% | 853.8 hPa | - | - | 0 W/m² | - |
| 1787973081 | 9.44° C | 85% | 854 hPa | - | - | 0 W/m² | - |
| 1787972709 | 9.44° C | 82% | 853.9 hPa | - | - | 0 W/m² | - |
| 1787972109 | 9.44° C | 86% | 853.8 hPa | - | - | 0 W/m² | - |
| 1787971282 | 9.44° C | 84% | 853.8 hPa | - | - | 0 W/m² | - |
| 1787970909 | 9.44° C | 88% | 854 hPa | - | - | 0 W/m² | - |
| 1787970309 | 9.44° C | 92% | 853.8 hPa | - | - | 0 W/m² | - |
| 1787969481 | 9.44° C | 93% | 853.4 hPa | - | - | 0 W/m² | - |
| 1787969108 | 9.44° C | 94% | 853.4 hPa | - | - | 0 W/m² | - |
| 1787968509 | 10° C | 88% | 853.4 hPa | - | - | 0 W/m² | - |
| 1787967681 | 11.67° C | 74% | 853.3 hPa | - | - | 0 W/m² | - |
| 1787967309 | 12.22° C | 71% | 853.1 hPa | - | - | 0 W/m² | - |
| 1787966709 | 12.78° C | 72% | 852.6 hPa | - | - | 0 W/m² | - |
| 1787965882 | 13.33° C | 73% | 852.6 hPa | - | - | 0 W/m² | - |
| 1787964909 | 13.89° C | 74% | 852.3 hPa | - | - | 0 W/m² | - |
| 1787964082 | 14.44° C | 75% | 852.2 hPa | - | - | 0 W/m² | - |
| 1787963709 | 15° C | 75% | 852.2 hPa | - | - | 0 W/m² | - |
* Rain since midnight (hover to see other rain measurements)
** Current wind speed in m/s (hover to see current wind gust speed)